Location: Sternwarte_Laufen
(47.9344°N, 12.9346°E)
Time: 12:16:46
(UTC+02:00)

ISS - Pass Details

Date: 25 May 2018
Orbit: 402 x 407 km, 51.6° (Epoch: 24 May)

Event Time Altitude Azimuth Distance (km) Brightness Sun altitude
Rises 02:04:45 0° 293° (WNW) 2,321 0.1 -19.9°
Reaches altitude 10° 02:06:50 10° 291° (WNW) 1,459 -1.0 -19.8°
Enters shadow 02:08:18 24° 286° (WNW) 876 -2.2 -19.7°
